Location: Murray Reservoir
(44.3513°N, 118.1041°W)
Time: 06:26:52
(UTC-07:00)

Envisat - Visible Passes

Search period start: 23 August 2019 00:00
Search period end: 02 September 2019 00:00
Orbit: 764 x 766 km, 98.1° (Epoch: 22 August)

Date Brightness Start Highest point End Pass type
(mag) Time Alt. Az. Time Alt. Az. Time Alt. Az.
25 Aug 5.7 20:11:33 10° SW 20:15:25 22° W 20:19:18 10° NW visible
27 Aug 6.1 20:39:07 10° WSW 20:41:14 12° W 20:43:21 10° WNW visible
28 Aug 5.4 19:59:48 10° SSW 20:04:04 27° W 20:08:22 10° NW visible
30 Aug 5.9 20:26:46 10° SW 20:29:51 16° W 20:32:55 10° NW visible
